Showing default

LES 5, 2866

Orbit data source: Space-Track

LES 5, 2866 is a payload satellite owned by SAMSO (US) in GEO that was launched on Sat, 01 Jul 1967 UTC via a TITAN IIIC launch vehicle from the Air Force Eastern Test Range (AFETR). Payload-class satellites include a variety of spacecraft equipped with specific instruments for various scientific and technological missions. These include communications satellites like Starlink; space stations such as the ISS; scientific satellites like the Hubble; Earth observation satellites from companies like Planet Labs, Umbra, and HawkEye 360; GPS; miniature CubeSats for education and research; and military/defense satellites.

Not visible in the next 10 days
Identifier
2866, 1967-066E
Orbit
GEO
Country
Flag of USUS
Related business
Manufacturer
MIT-LL
Mission
Partially operational spacecraft
Bus & Motor
LES, Unknown motor
Mass
102 kg wet, 102 kg dry
Launch date (UTC)
1967-07-01 (59 years ago)
Launch vehicle
TITAN IIIC
Launch site
Air Force Eastern Test Range (AFETR)
Object type
Payload
Rocket body
Debris
Shape & HBR
Unknown
Radar Cross Section
Large (>1 m²)

Expand to show TLE details & history
Last TLE update: 8 hours ago

TLE from 8 hours ago
0 LES 5
1  2866U 67066E   26037.05618742 -.00000057  00000-0  00000+0 0  9990
2  2866   2.3206 100.5436 0056800 205.7628 214.2108  1.09425113129607
Epoch: 2026-02-06T01:20Z
TLE epoch observation values (Epoch: 2026-02-06T01:20:54.593Z)
Latitude
2.01942°
Longitude
3.73248°
Altitude
33,588.462 km
Speed
3.151 km/s
True Right ascension
10h 40m 38s
True Declination
2° 01' 02"
Sunlit
Object was in daylight at epoch
Visualization orbit readout
Latitude
Unknown
Longitude
Unknown
Altitude
Unknown
Speed
Unknown
Apparent Right ascension
Unknown
Apparent Declination
Unknown
Sunlit
N/A
Visualization observer readout
Local Sidereal Time
10:58:29
Azimuth
Unknown
Elevation
Unknown
Doppler factor
Unknown
Orbital elements
Apogee altitude
33,628.248 km
Perigee altitude
33,176.342 km
Semi-major axis
39,780.432 km
Eccentricity
0.00568
Inclination
2.3206°
RAAN
100.5436°
Arg. of periapsis
205.7628°
True anomaly
213.84699°
Mean anomaly
214.2108°
Eccentric anomaly
214.02868°
Mean motion
0.27355 °/min
Orbital period
1,316.02 mins
BSTAR
0
Loading maneuver chart data...
Computing Atmospheric mass density...
Loading historical data...
Loading historical data...
Loading historical data...
Loading historical data...
Loading historical data...
Loading historical data...
Loading historical data...

Documentation

Showing up to 5 results
|